Location: Chippewa Lake
(41.0698°N, 81.9010°W)
Time: 01:22:47
(UTC+00:00)

Cosmos 2084 - Pass Details

Date: 21 September 2021
Orbit: 529 x 652 km, 62.8° (Epoch: 17 October)

Event Time Altitude Azimuth Distance (km) Brightness Sun altitude
Rises 10:40:26 0° 181° (S) 2,650 6.7 -7.2°
Reaches altitude 10° 10:42:58 10° 165° (SSE) 1,769 6.0 -6.7°
Maximum altitude 10:45:59 21° 115° (ESE) 1,229 6.0 -6.2°
Drops below altitude 10° 10:49:03 10° 65° (ENE) 1,803 7.4 -5.6°
Sets 10:51:40 0° 49° (NE) 2,716 7.9 -5.1°
